User: anonymous   Login
Location: Rumah Dana
(3.1167°N, 113.0167°E)
Time: 19:46:14
(UTC+00:00)
Language:

Cosmos 1371 Rocket - Orbit

View from above orbital plane
View from above orbital plane
View from above satellite
View from above satellite

Ground track
Ground track

The orbit data is extracted from the following two-line orbital elements,

1 13242U 82051B   24284.54211835  .00001094  00000-0  37779-3 0  9997
2 13242  74.0416 128.4128 0023973  31.0933 329.1633 14.36852478216964
Epoch (UTC): 10 October 2024 13:00:39
Eccentricity: 0.0023973
inclination: 74.0416°
perigee height: 752 km
apogee height: 786 km
right ascension of ascending node: 128.4128°
argument of perigee: 31.0933°
revolutions per day: 14.36852478
mean anomaly at epoch: 329.1633°
orbit number at epoch: 21696

The dashed part of the orbit path shows where the satellite is in the earth's shadow,  

DLR